星链-30069 (STARLINK-30069 )

导读

STARLINK-30069是美国SpaceX公司星链(Starlink)星座的成员卫星,于北京时间2023年6月4日发射升空。星链项目计划部署数万颗低轨卫星,旨在为全球偏远地区提供高速低延迟互联网接入,目前已在全球超60个国家商业化运营。作为Starlink批量组网过程中的卫星,STARLINK-30069进一步完善了星链低轨星座的覆盖能力,推动全球卫星互联网建设。不过大规模低轨卫星星座,也引发天文观测、轨道空间安全等领域的担忧。

基本信息
目录编号:
56834
目录名称:
STARLINK-30069
国际标识:
2023-079M
轨道中心:
EARTH
卫星名称:
星链-30069
卫星全名:
星链-30069 (STARLINK-30069 )
卫星状态:
在轨 (已飞行1110 天)
发射日期:
2023-06-04 UTC
国别 :
美国 (US)
星等 :
--
轨道信息
数据来源 国际轨道数据
星历时间: 2026-06-18T14:58:25+0800
7小时前
查看轨道信息
半长轴: 6861.212km
偏心率: 0.0001733
轨道倾角: 43.004°
近地点辐角 272.816°
升交点赤经 255.521°
平近点角 87.249°
近地点: 481.885km
远地点: 484.265km
周期: 94.267分钟
每日圈数: 15.275716
详细信息
固有亮度:
5
最大亮度:
0.5
卫星平台:
Starlink v2.0 mini
覆盖范围:
全球
运营商:
太空探索技术公司
运营商所在国:
美国
制造商(研发单位):
太空探索技术公司
制造商所在国:
美国
使用方式:
暂无
卫星简介
星链(Starlink)计划是由太空探索技术公司(SpaceX)提出的一个巨型低轨卫星互联网星座项目,计划在2019年至2024年间在太空搭建由约1.2万颗卫星组成的“星链”网络,其中1584颗将部署在地球上空550千米处的近地轨道,并从2020年开始工作。该卫星仍在工作。
2D轨道图
3D轨道图
轨道高度分析图
轨道倾角分析图
轨道综合分析图
查看轨道综合分析图